Location: Unspecified
(58.9933°N, 5.6375°E)
Time: 10:15:43
(UTC+02:00)

Cosmos 1674 - Visible Passes

Search period start: 29 April 2016 00:00
Search period end: 09 May 2016 00:00
Orbit: 501 x 527 km, 82.5° (Epoch: 28 April)

Date Brightness Start Highest point End Pass type
(mag) Time Alt. Az. Time Alt. Az. Time Alt. Az.
01 May 5.7 04:40:02 10° ESE 04:42:00 14° E 04:43:58 10° NE visible
02 May 5.8 04:25:02 10° ESE 04:26:29 12° E 04:27:55 10° ENE visible
03 May 6.0 04:10:33 10° E 04:10:58 10° ENE 04:11:21 10° ENE visible
08 May 4.6 04:24:33 10° SSE 04:27:50 29° E 04:31:08 10° NNE visible
